Regional Weather Roundup
Issued by NWS Wakefield, VA

Home | Current Version | Previous Version | Text Only | Print | Product List | Glossary Off
Versions: 1 2 3 4 5 6 7 8 9 10 11 12 13 14 15 16 17 18 19 20 21 22 23 24 25 26 27 28 29 30 31 32 33 34 35 36 37 38 39 40 41 42 43 44 45 46 47 48 49 50

000
ASUS41 KAKQ 261315
RWRAKQ

REGIONAL WEATHER ROUNDUP
NATIONAL WEATHER SERVICE WAKEFIELD VA
900 AM EDT THU APR 26 2018

Note: "fair" indicates few or no clouds below 12,000 feet with no
significant weather and/or obstructions to visibility. * = Denotes
station may not report precipitation (e.g., rain,snow,etc.),
thunder or fog.

VAZ042-051-052>054-056-261400-
NORTHERN VIRGINIA

CITY           SKY/WX    TMP DP  RH WIND       PRES   REMARKS
WASH NATIONAL  PTSUNNY   55  37  50 W13G21    29.88R
DULLES         PTSUNNY   52  39  61 NW21G31   29.86F
FORT BELVOIR   FAIR      55  37  51 NW15      29.89R
QUANTICO       PTSUNNY   57  40  52 NW10      29.90R
FREDERICKSBRG* FAIR      57  41  55 NW8       29.89R
STAFFORD*      FAIR      57  40  54 NW10      29.93S
WARRENTON      FAIR      56  36  46 NW7       29.90R
CULPEPER*      FAIR      56  36  46 CALM      29.91R
MANASSAS*      FAIR      54  38  54 CALM      29.91R
LEESBURG*      FAIR      54  41  62 NW10G18   29.90R
WINCHESTER     FAIR      50  36  57 NW12      29.92R
FRONT ROYAL*   FAIR      54  36  50 NW6G16    29.89R
LURAY*         FAIR      54  37  54 SW7       29.91R
$$

VAZ048-049-060>072-079>083-261400-
CENTRAL AND SOUTH CENTRAL VIRGINIA

CITY           SKY/WX    TMP DP  RH WIND       PRES   REMARKS
RICHMOND       CLOUDY    57  43  59 N9        29.89R
CHESTERFIELD*  FAIR      57  43  59 NW5       29.90R
PETERSBURG*    FAIR      58  45  61 N6        29.90S
HANOVER        PTSUNNY   57  42  57 NW6       29.90R
TAPPAHANNOCK*  PTSUNNY   57  40  53 NW5       29.89S
QUINTON*       FAIR      55  44  64 MISG      29.88F
CHARLOTTSVILLE FAIR      57  38  48 VRB3      29.88S
GORDONSVILLE*  FAIR      57  40  52 NW6       29.89R
ORANGE*        FAIR      55  37  50 CALM      29.89R
LOUISA*        FAIR      57  39  51 NW7       29.93S
BUMPASS*       NOT AVBL
FARMVILLE*     FAIR     N/A N/A N/A CALM      29.89S
CREWE*         FAIR      56  47  72 N5        29.90R
FORT PICKETT*  FAIR      58  49  73 N3        29.90R
CHASE CITY*    FAIR      59  52  79 N5        29.89S
CLARKSVILLE*   FAIR      59  52  77 N5        29.89S
SOUTH HILL*    FAIR      59  51  75 N7        29.95S
LAWRENCEVILLE* FAIR      60  47  63 N5        29.89R
EMPORIA*       PTSUNNY   59  52  77 CALM      29.91R
$$

VAZ088>098-261400-
SOUTHEAST VIRGINIA

CITY           SKY/WX    TMP DP  RH WIND       PRES   REMARKS
NORFOLK        CLOUDY    59  48  67 N9        29.88R
VIRGINIA BEACH CLOUDY    59  48  67 N12       29.87R
NORFOLK NAVAL  PTSUNNY   59  47  64 N7        29.89R
WEST POINT*    FAIR      55  44  65 NW5       29.90S
SALUDA*        FAIR      55  41  60 NW10      29.88S
NEWPORT NEWS   CLOUDY    58  47  66 CALM      29.89R
LANGLEY AFB    PTSUNNY   58  45  62 N13       29.89R
FORT EUSTIS    CLOUDY    58  45  62 N7        29.87R
WILLIAMSBURG*  FAIR      57  48  72 N6        29.89S
HR EXEC AP*    CLOUDY    57  49  74 VRB3      29.90R
FRANKLIN*      CLOUDY    58  50  76 N3        29.90R
US460-WAKEFLD  CLOUDY    59  48  67 N3        29.89R
$$

VAZ020-022-025-037-045-261400-
WEST CENTRAL AND SOUTHWEST VIRGINIA

CITY           SKY/WX    TMP DP  RH WIND       PRES   REMARKS
STAUNTON*      FAIR      50  40  67 CALM      29.93S
WAYNESBORO*    FAIR      52  38  60 W5        29.91S
HOT SPRINGS VA FAIR      41  38  88 NW5       29.91S
LYNCHBURG      FAIR      55  40  56 N3        29.90R
DANVILLE       FAIR      57  49  74 N6        29.90S
SOUTH BOSTON*  FAIR      58  48  69 N6        29.90F
MARTINSVILLE   FAIR      55  46  71 N5        29.93S
ROANOKE        FAIR      55  39  54 NW7       29.93S
BLACKSBURG     FAIR      51  44  76 NW3       29.96S
DUBLIN*        FAIR      52  42  70 CALM      29.94F
MARION*        FAIR      50  46  87 CALM      29.95S
HILLSVILLE*    FAIR      48  42  77 N5        29.90F
RICHLANDS*     FAIR      49  20  32 CALM      29.93R HAZE
WISE*          FAIR      52  48  87 SE3       29.94R
ABINGDON*      FAIR      54  48  81 E5        29.92R
$$

MDZ021>025-VAZ099-100-261400-
SOUTHERN MARYLAND AND THE DELMARVA PENINSULA

CITY           SKY/WX    TMP DP  RH WIND       PRES   REMARKS
PATUXENT RIVER FAIR      58  40  51 NW12      29.87R
BAY BRIDGE APT FAIR      54  41  62 W7        29.86S
LEONARDTOWN    FAIR      54  37  54 NW8G18    29.89R
DOVER          FAIR      54  40  60 W14       29.82R
GEORGETOWN     FAIR      55  41  59 NW9G20    29.84R
EASTON         MOSUNNY   55  39  54 NW16G22   29.89R
CAMBRIDGE      SUNNY     55  39  54 NW14G20   29.87R
SALISBURY      FAIR      55  42  61 NW15G23   29.85R
TANGIER        FAIR      55  45  67 NW15      29.88R
OCEAN CITY     FAIR      55  43  63 NW16G25   29.84R
WALLOPS ISLAND PTSUNNY   58  44  60 NW10      29.86R
ACCOMACK*      FAIR      57  46  66 NW14      29.87R
$$

NCZ012>017-030>032-261400-
NORTH CENTRAL AND EASTERN NORTH CAROLINA

CITY           SKY/WX    TMP DP  RH WIND       PRES   REMARKS
ROANOKE RAPIDS FAIR      59  55  88 CALM      29.90R
RALEIGH        PTSUNNY   58  52  80 N6        29.89S
ELIZABETH CITY CLOUDY    63  56  78 NE7       29.88R
AHOSKIE*       FAIR      61  58  91 NE5       29.89R
EDENTON*       CLOUDY    63  60  90 N3        29.88S
CURRITUCK*     NOT AVBL
KILL DEVIL HLS CLOUDY    61  61  99 CALM      29.87R
MANTEO         CLOUDY    62  60  94 N3        29.89R
CAPE HATTERAS  FAIR      66  61  84 VRB3      29.88R
TARBORO*       NOT AVBL
GOLDSBORO      FAIR      64  54  68 N6        29.87R
WASHINGTON     FAIR      62  56  80 CALM      29.89R
GREENVILLE     FAIR      63  55  77 N5        29.90S
NEW BERN       FAIR      64  56  75 VRB3      29.89R
WILMINGTON     FAIR      66  55  67 NE8       29.88S
$$

VAZ048-261400-
ELSEWHERE

CITY           SKY/WX    TMP DP  RH WIND       PRES   REMARKS
HARRISBURG PA  FAIR      52  38  58 NW16      29.83R
BALTIMORE      PTSUNNY   55  40  56 W14G22    29.84R
ANNAPOLIS      FAIR      57  39  51 NW6       29.86R
ANDREWS AFB    FAIR      54  38  55 W13       29.87R
PHILADELPHIA   FAIR      53  38  56 NW17      29.79R
HENDERSON NC   FAIR      56  48  72 N8        29.90S
GREENSBORO     CLOUDY    57  48  72 N6        29.89S
ROCKY MOUNT    FAIR      62  53  72 N8        29.88S
$$

VAZ100-261400-
MARINE

STATION/POSITION TIME  TEMP    WIND        PRES    WAVE   SWELL
                       AIR SEA DIR/SP/G            HT/PER HT/PER
                 (UTC) (F)     (DEG/KT/KT) (MB)    (FT/S) (FT/S)
BRANDYWINE LGT   1236   52     320/ 16/ 21 1009.8R
CAPE MAY NJ      1236   53 52  320/ 18/ 24 1009.1R
LEWES DE         1236   52 53  310/ 16/ 18 1009.6R
15NM E FENWICK I 1250   50 49  300/ 14/ 17 1010.0R   6/10   5/10
OCEAN-CITY-INLET 1236   53 51  330/ 16/ 19 1010.5R
WACHAPREAGUE VA  1236   56 58  330/  5/ 12 1011.3R
THOMAS POINT MD  1200   51 54  300/ 13/ 15 1011.7R
GOOSES REEF MD   1300   54     340/ 10/ 14 1012.6
COVE POINT MD    1236   53     330/ 11/ 13 1012.2R
SOLOMONS ISLAND  1236   54 54  300/  8/ 12 1011.2R
BISHOPS HEAD MD  1236   54 58  310/ 15/ 18 1011.7R
PINEY POINT MD   1248          330/ 21/ 22   N/A
POTOMAC MD       1300   54 54  310/ 10/ 14 1013.1    2/ 3
CAMBRIDGE MD     1236   55 56              1012.0R
LEWISETTA VA     1236   55 56  330/ 10/ 17 1011.6R
RAPPAHANNOCK LGT 1248          310/ 16/ 19 1012.5R
YORK RVR RNG VA  1236   56     340/ 16/ 20 1012.4R
YORKTOWN VA      1248   56 57  330/ 11/ 14 1011.7R
DOMINION TERM VA 1248   59     360/  3/ 12 1012.1R
KIPTOPEKE VA     1248      56  350/ 13/ 15   N/A
CAPE HENRY VA    1248   57     320/  8/ 10   N/A
WILLOUBY STN VA  1248   58     340/  9/ 10 1012.0R
S CRANEY ISL VA  1248   59      10/  6/  7 1011.8R
CAPE HENRY BUOY  1300      54                N/A     4/11   2/11
1ST LANDING BUOY 1300   56 54  360/  8/ 10 1012.5    2/ 8
64NM E OF VA BCH 1250   53 51  280/  8/ 10 1011.8R   8/10   7/10
DUCK PIER NC     1248   61 52  350/  4/  5 1011.3R
44100 DUCK FRF   1215      55                N/A     5/11   3/11
44056 DUCK FRF   1300      53                N/A     5/10   3/11
OREGON INLET NC  1236   63 62  300/  2/  3 1011.5R
HATTERAS NC      1248   65 67  290/  5/  6 1011.5R
DIAMOND SHLS NC  1250   65 70  320/  6/ 10 1012.0R   5/ 9   5/ 9
CAPE LOOKOUT NC  1200          300/  2/  3 1011.9R
$$



USA.gov is the U.S. government's official web portal to all federal, state and local government web resources and services.